Baraboo, WI

12:26 AM CDT on July 25, 2017 (GMT -0500)
Baraboo Wisconsin Dells

Weather History for KDLL - September, 2013

Change the Weather History Date:

Sunday, September 8, 2013

  Actual Average Record
Temperature  
Mean Temperature 66 °F -  
Max Temperature 70 °F 76 °F 95 °F (1978)
Min Temperature 61 °F 50 °F 26 °F (1999)
Growing Degree Days 16 (Base 50)    
Moisture  
Dew Point 59 °F    
Average Humidity 76    
Maximum Humidity 82    
Minimum Humidity 68    
Precipitation  
Precipitation 0.00 in - - ()
Sea Level Pressure  
Sea Level Pressure 30.04 in    
Wind  
Wind Speed 10 mph (East)    
Max Wind Speed 16 mph    
Max Gust Speed 26 mph    
Visibility 10 miles    
Events      
Averages and records for this station are not official NWS values.
T = Trace of Precipitation, MM = Missing Value Source: NWS Daily Summary

Daily Weather History Graph

Daily Weather History Graph

Search for Another Location

Airport or City:

Trip Planner

Search our weather history database for the weather conditions in past years. The results will help you decide how hot, cold, wet, or windy it might be!

Date:

Astronomy

Sep. 08, 2013 Rise Set
Actual Time 6:30 AM CDT 7:21 PM CDT
Civil Twilight 6:01 AM CDT 7:50 PM CDT
Nautical Twilight 5:27 AM CDT 8:24 PM CDT
Astronomical Twilight 4:51 AM CDT 9:00 PM CDT
Moon 9:56 AM CDT (9/8) 8:48 PM CDT (9/8)
Length of Visible Light 13h 48m
Length of Day
12h 50m
Waxing Crescent, 11% of the Moon is Illuminated
Sep 8
Waxing Crescent
Sep 12
First Quarter
Sep 19
Full
Sep 26
Last Quarter
Oct 4
New

Hourly Weather History & Observations

Time (CDT) Temp. Dew Point Humidity Pressure Visibility Wind Dir Wind Speed Gust Speed Precip Events Conditions
12:15 AM 70.9 °F 64.2 °F 79% 30.02 in 10.0 mi East 15.0 mph 21.9 mph N/A   Overcast
12:35 AM 70.0 °F 62.8 °F 78% 30.02 in 10.0 mi ENE 13.8 mph 24.2 mph N/A   Overcast
12:55 AM 69.1 °F 62.2 °F 79% 30.03 in 10.0 mi ENE 15.0 mph 26.5 mph N/A   Overcast
1:15 AM 67.8 °F 60.6 °F 78% 30.04 in 10.0 mi ENE 13.8 mph 25.3 mph N/A   Overcast
1:35 AM 67.3 °F 60.1 °F 78% 30.04 in 10.0 mi ENE 11.5 mph 17.3 mph N/A   Overcast
1:55 AM 66.7 °F 59.0 °F 76% 30.04 in 10.0 mi East 16.1 mph 20.7 mph N/A   Overcast
2:15 AM 66.4 °F 58.5 °F 76% 30.04 in 10.0 mi ENE 13.8 mph 18.4 mph N/A   Overcast
2:35 AM 66.2 °F 58.1 °F 75% 30.05 in 10.0 mi ENE 11.5 mph 21.9 mph N/A   Overcast
2:55 AM 66.0 °F 58.3 °F 76% 30.05 in 10.0 mi ENE 10.4 mph 17.3 mph N/A   Overcast
3:15 AM 65.7 °F 58.5 °F 78% 30.05 in 10.0 mi NE 10.4 mph - N/A   Overcast
3:35 AM 65.3 °F 57.6 °F 76% 30.05 in 10.0 mi ENE 12.7 mph - N/A   Overcast
3:55 AM 64.8 °F 57.2 °F 76% 30.06 in 10.0 mi ENE 9.2 mph - N/A   Overcast
4:15 AM 64.8 °F 56.5 °F 74% 30.06 in 10.0 mi ENE 11.5 mph 19.6 mph N/A   Overcast
4:35 AM 64.8 °F 55.4 °F 72% 30.05 in 10.0 mi ENE 9.2 mph - N/A   Overcast
4:55 AM 64.4 °F 56.3 °F 75% 30.05 in 10.0 mi ENE 10.4 mph - N/A   Overcast
5:15 AM 63.5 °F 55.9 °F 76% 30.05 in 10.0 mi NE 8.1 mph 17.3 mph N/A   Overcast
5:35 AM 62.1 °F 55.4 °F 79% 30.06 in 10.0 mi ENE 10.4 mph - N/A   Mostly Cloudy
5:55 AM 61.2 °F 55.6 °F 82% 30.06 in 10.0 mi NE 8.1 mph - N/A   Scattered Clouds
6:15 AM 61.2 °F 55.6 °F 82% 30.07 in 10.0 mi NE 8.1 mph - N/A   Overcast
6:35 AM 61.2 °F 55.6 °F 82% 30.08 in 10.0 mi ENE 5.8 mph - N/A   Overcast
6:55 AM 61.0 °F 55.4 °F 82% 30.08 in 10.0 mi ENE 6.9 mph - N/A   Overcast
7:15 AM 61.0 °F 55.4 °F 82% 30.07 in 10.0 mi ENE 8.1 mph - N/A   Overcast
7:35 AM 61.3 °F 55.6 °F 81% 30.07 in 10.0 mi ENE 6.9 mph - N/A   Overcast
7:55 AM 61.9 °F 55.8 °F 80% 30.07 in 10.0 mi East 10.4 mph - N/A   Overcast
8:15 AM 62.6 °F 55.9 °F 79% 30.07 in 10.0 mi East 11.5 mph 17.3 mph N/A   Overcast
8:35 AM 63.3 °F 56.1 °F 77% 30.07 in 10.0 mi East 9.2 mph - N/A   Overcast
8:55 AM 64.0 °F 56.3 °F 76% 30.07 in 10.0 mi East 5.8 mph - N/A   Overcast
9:15 AM 64.8 °F 56.3 °F 74% 30.08 in 10.0 mi East 8.1 mph - N/A   Overcast
9:35 AM 64.6 °F 56.5 °F 75% 30.09 in 10.0 mi East 9.2 mph - N/A   Overcast
9:55 AM 65.7 °F 56.7 °F 73% 30.09 in 10.0 mi ESE 9.2 mph - N/A   Overcast
10:15 AM 66.4 °F 56.7 °F 71% 30.09 in 10.0 mi East 12.7 mph - N/A   Overcast
10:55 AM 66.7 °F 57.2 °F 71% 30.10 in 10.0 mi East 9.2 mph - N/A   Overcast
11:15 AM 66.7 °F 57.4 °F 72% 30.10 in 10.0 mi East 10.4 mph 16.1 mph N/A   Overcast
11:35 AM 67.6 °F 57.6 °F 70% 30.09 in 10.0 mi East 8.1 mph - N/A   Overcast
11:55 AM 68.0 °F 58.1 °F 71% 30.09 in 10.0 mi East 9.2 mph - N/A   Overcast
12:15 PM 69.3 °F 58.3 °F 68% 30.08 in 10.0 mi East 9.2 mph - N/A   Overcast
12:35 PM 69.8 °F 58.8 °F 68% 30.08 in 10.0 mi East 9.2 mph - N/A   Overcast
12:55 PM 69.8 °F 59.2 °F 69% 30.07 in 10.0 mi East 9.2 mph - N/A   Overcast
1:15 PM 70.2 °F 59.2 °F 68% 30.07 in 10.0 mi East 10.4 mph - N/A   Overcast
1:35 PM 69.6 °F 59.5 °F 70% 30.07 in 10.0 mi East 13.8 mph - N/A   Overcast
1:55 PM 69.8 °F 59.9 °F 71% 30.07 in 10.0 mi East 10.4 mph - N/A   Overcast
2:15 PM 68.9 °F 59.9 °F 73% 30.07 in 10.0 mi ESE 10.4 mph - N/A   Overcast
2:35 PM 69.1 °F 60.6 °F 74% 30.05 in 10.0 mi East 5.8 mph - N/A   Overcast
2:55 PM 69.8 °F 60.4 °F 72% 30.04 in 10.0 mi East 8.1 mph - N/A   Overcast
3:15 PM 69.4 °F 60.4 °F 73% 30.04 in 10.0 mi East 11.5 mph - N/A   Overcast
3:35 PM 69.8 °F 60.8 °F 73% 30.03 in 10.0 mi East 8.1 mph - N/A   Overcast
3:55 PM 70.2 °F 60.8 °F 72% 30.02 in 10.0 mi East 8.1 mph - N/A   Overcast
4:15 PM 70.5 °F 60.8 °F 71% 30.02 in 10.0 mi ESE 9.2 mph - N/A   Overcast
4:35 PM 70.2 °F 61.2 °F 73% 30.01 in 10.0 mi East 6.9 mph - N/A   Overcast
4:55 PM 70.0 °F 61.3 °F 74% 30.00 in 10.0 mi ESE 8.1 mph - N/A   Overcast
5:15 PM 70.3 °F 61.5 °F 74% 30.00 in 10.0 mi East 10.4 mph - N/A   Overcast
5:35 PM 70.3 °F 61.7 °F 74% 30.00 in 10.0 mi East 9.2 mph - N/A   Overcast
5:55 PM 69.8 °F 61.7 °F 75% 29.98 in 10.0 mi East 9.2 mph - N/A   Overcast
6:15 PM 69.4 °F 61.5 °F 76% 29.97 in 10.0 mi ESE 9.2 mph - N/A   Overcast
6:35 PM 69.3 °F 61.3 °F 76% 29.96 in 10.0 mi ESE 6.9 mph 16.1 mph N/A   Overcast
6:55 PM 69.1 °F 61.7 °F 77% 29.96 in 10.0 mi East 5.8 mph - N/A   Overcast
7:15 PM 68.9 °F 61.3 °F 77% 29.97 in 10.0 mi ESE 6.9 mph - N/A   Overcast
7:35 PM 68.9 °F 61.2 °F 76% 29.98 in 10.0 mi ESE 5.8 mph - N/A   Overcast
7:55 PM 68.9 °F 60.8 °F 75% 29.99 in 10.0 mi ESE 5.8 mph - N/A   Overcast
8:15 PM 68.5 °F 60.8 °F 76% 29.99 in 10.0 mi ESE 5.8 mph - N/A   Overcast
8:35 PM 68.4 °F 60.8 °F 77% 30.00 in 10.0 mi ESE 3.5 mph - N/A   Overcast
8:55 PM 68.4 °F 60.8 °F 77% 30.00 in 10.0 mi SE 4.6 mph - N/A   Overcast
9:15 PM 68.0 °F 61.0 °F 78% 30.00 in 10.0 mi ESE 3.5 mph - N/A   Light Drizzle
9:35 PM 68.0 °F 61.0 °F 78% 30.00 in 10.0 mi ENE 4.6 mph - N/A   Overcast
9:55 PM 67.5 °F 61.0 °F 80% 30.00 in 10.0 mi ENE 6.9 mph - N/A   Overcast
10:15 PM 67.3 °F 60.8 °F 80% 30.00 in 10.0 mi East 6.9 mph - N/A   Overcast
10:35 PM 67.1 °F 60.8 °F 80% 30.00 in 10.0 mi East 9.2 mph - N/A   Overcast
10:55 PM 66.6 °F 60.3 °F 80% 29.99 in 10.0 mi ESE 8.1 mph - N/A   Overcast
11:15 PM 66.4 °F 60.3 °F 81% 29.99 in 5.0 mi ESE 5.8 mph - N/A   Haze
11:35 PM 66.2 °F 59.9 °F 80% 29.98 in 10.0 mi East 3.5 mph - N/A   Overcast
11:55 PM 66.2 °F 59.9 °F 80% 29.97 in 10.0 mi East 4.6 mph - N/A   Overcast